Theta_e
326 322 324 321 308 310 304 304 309 308 310 314 318 315 314 316 311 307 333 337 337 336 343 346 347 349 349 348 348 347 346 342 340 339 341 339 340 340 342 340 343 343 340 342 341 338 338 336 336
321 320 325 319 306 302 302 306 305 310 314 317 318 317 315 314 324 327 332 336 337 337 343 344 345 348 348 347 348 347 345 343 339 339 339 338 340 338 340 339 342 342 339 339 341 339 337 335 334
319 320 317 313 307 301 303 306 309 313 316 316 317 321 318 316 326 329 335 338 337 338 343 344 345 347 348 348 348 347 345 343 341 339 339 338 338 337 339 339 343 343 340 340 339 338 336 334 333
319 322 317 309 304 305 304 308 311 315 315 314 318 313 322 328 328 332 337 338 336 338 343 343 345 347 347 347 348 347 346 344 342 340 336 337 337 338 337 340 340 341 339 338 336 336 335 333 333
322 319 310 307 305 307 309 309 313 313 312 313 317 310 315 328 333 335 337 337 334 337 342 344 344 346 347 347 347 347 346 344 342 340 337 336 336 336 336 339 339 340 339 337 335 334 333 332 332
318 315 307 304 305 308 311 311 314 314 312 314 314 313 316 330 333 333 336 335 334 335 341 343 338 341 344 345 345 345 346 344 342 340 337 336 335 335 334 335 338 337 337 336 335 333 333 332 331
314 311 307 305 305 306 309 313 313 313 312 313 318 310 319 327 333 333 334 333 335 336 338 342 344 341 336 339 340 341 343 342 341 340 338 337 336 335 334 335 335 336 335 335 334 333 332 332 331
316 313 305 306 305 306 310 312 313 313 312 318 321 311 312 326 333 333 334 332 334 336 336 340 342 342 342 341 333 335 335 337 337 336 334 331 331 332 331 331 334 334 333 333 334 333 331 331 330
314 309 306 306 305 308 309 309 311 313 314 317 321 318 323 330 333 331 329 329 330 333 335 337 339 340 339 339 333 330 330 331 331 330 327 327 332 332 330 327 331 335 334 332 333 333 331 329 328
312 309 308 309 310 309 309 309 309 311 312 314 317 322 326 329 330 327 326 326 325 328 333 334 336 337 338 334 335 336 334 334 335 334 335 333 332 331 329 325 327 330 330 330 331 332 328 325 327
308 308 311 309 310 308 307 307 309 309 308 313 314 318 324 326 328 328 327 327 324 327 331 332 331 334 335 332 333 334 334 334 335 336 335 333 331 330 330 329 327 330 324 328 327 326 327 327 327
306 308 308 309 312 310 308 308 307 309 313 314 315 317 324 325 326 327 327 327 326 326 329 331 331 332 333 333 332 332 332 333 333 334 334 332 330 329 327 326 326 327 327 327 327 326 326 325 325
308 309 309 310 311 312 312 311 311 312 315 315 312 314 320 323 326 328 329 329 328 327 328 331 332 331 331 331 331 331 331 332 332 332 332 331 329 328 327 326 325 325 325 326 325 325 325 324 324
311 311 311 312 313 314 312 314 311 317 320 317 314 315 318 321 324 327 328 328 328 329 329 330 331 330 331 330 330 330 331 331 330 331 330 329 328 327 326 325 323 324 325 326 326 325 324 324 324
310 307 310 310 311 311 314 309 309 317 320 317 318 317 317 320 323 325 327 328 329 330 331 330 330 331 329 330 330 330 330 330 330 329 330 329 328 326 325 324 323 323 325 326 326 324 324 323 323
305 305 297 304 309 310 310 298 308 316 315 314 317 318 318 319 321 325 327 328 330 331 331 331 330 330 329 328 329 329 330 330 330 329 330 329 328 327 326 323 323 324 324 325 325 324 323 323 322
301 295 297 299 307 306 307 301 307 314 313 312 315 316 316 317 320 324 326 328 329 330 331 331 331 330 329 329 329 329 330 330 330 330 330 329 328 328 327 326 325 324 323 324 324 324 323 322 322
293 294 296 296 301 302 302 302 307 310 310 309 311 312 313 313 314 319 324 328 329 330 331 331 331 331 331 329 329 329 329 329 330 330 329 329 328 328 328 328 328 326 323 324 324 323 323 323 322
296 295 295 298 301 299 299 300 302 306 306 307 309 311 313 313 317 317 318 324 328 329 330 330 330 330 331 329 328 327 326 328 329 329 329 329 329 327 328 328 328 327 324 325 324 323 322 321 322
297 295 294 298 299 298 297 296 300 302 303 305 306 307 308 310 312 315 315 318 323 326 328 329 330 330 331 331 330 329 327 327 327 329 328 328 328 328 327 327 327 327 325 325 325 322 321 321 322
295 294 294 293 296 298 295 292 295 298 301 303 305 307 308 308 309 311 313 314 319 323 326 328 329 330 331 331 331 329 329 328 326 327 327 328 328 328 328 327 327 326 327 325 325 324 322 319 321
290 296 295 294 291 286 294 284 292 295 295 298 301 304 306 308 310 311 312 313 314 319 326 328 328 330 332 332 329 328 326 323 325 327 328 327 328 327 328 327 327 327 327 325 326 325 323 322 319
291 296 294 293 291 290 290 286 290 293 292 295 299 301 304 306 308 309 311 313 314 317 321 326 327 329 332 332 330 329 327 327 328 328 326 327 327 328 327 327 327 327 327 326 326 324 324 324 323
297 294 293 293 290 281 286 285 286 290 292 295 297 300 302 305 307 309 311 313 314 316 317 322 323 325 330 330 330 329 328 327 327 327 326 327 327 327 328 327 327 328 327 326 326 326 324 324 323
295 290 282 280 281 280 288 286 288 294 296 296 297 300 302 304 305 307 309 310 313 315 317 316 319 322 326 329 330 329 329 329 328 328 327 327 327 325 324 326 327 327 327 328 327 326 325 324 323
292 290 282 276 277 281 287 282 288 296 299 300 301 303 304 304 306 308 309 310 310 313 315 315 315 318 322 326 328 329 330 329 329 330 329 328 328 327 326 324 327 327 327 327 327 326 326 325 324
290 285 291 284 282 282 285 289 294 297 297 299 300 299 300 302 304 305 306 308 309 310 312 314 314 314 318 322 325 328 329 329 328 329 330 330 330 328 327 324 322 325 327 326 326 324 323 323 323
291 293 283 284 276 276 281 284 286 291 293 295 297 299 299 301 302 304 305 307 308 309 311 312 314 313 314 318 322 325 327 329 329 330 329 330 330 329 328 326 322 322 323 323 323 322 323 321 321
289 287 289 288 285 278 277 282 293 293 295 295 296 297 298 300 302 303 305 307 306 307 308 309 310 311 312 315 319 323 325 327 328 328 328 329 329 328 327 326 323 321 320 320 320 320 321 319 319
292 289 290 283 281 284 283 283 295 296 296 297 296 298 299 300 301 302 304 305 305 305 306 306 305 306 309 312 316 321 324 326 326 326 326 327 325 326 325 324 323 321 320 319 318 318 319 318 317
Wind_Speed
13 9 3 3 3 2 3 4 1 5 6 2 4 3 2 5 3 5 2 7 10 12 10 12 10 11 13 13 12 13 15 15 14 15 14 15 15 12 14 14 13 15 16 15 18 17 16 15 16
11 5 2 0 3 2 5 3 2 5 3 5 5 3 3 3 2 6 9 4 10 11 10 11 8 12 12 13 12 13 13 13 14 14 15 14 13 12 13 13 12 16 16 14 17 16 16 15 15
5 4 3 1 1 4 3 1 2 4 5 3 3 2 2 2 3 8 4 12 11 11 9 11 8 12 12 12 12 13 13 12 12 13 14 13 13 13 11 11 13 14 16 15 16 15 15 15 15
5 1 3 3 2 3 1 2 5 9 4 2 1 3 3 1 1 6 11 14 12 10 9 10 9 11 11 12 12 13 13 13 12 11 13 12 13 12 7 12 14 14 15 15 14 14 14 14 14
3 2 2 2 3 1 2 0 7 11 3 3 3 2 1 4 3 8 11 12 12 11 9 11 8 10 10 11 12 11 12 13 13 12 12 11 12 11 9 11 12 14 16 14 13 13 13 13 13
1 3 4 5 3 2 1 3 7 8 4 4 4 2 2 4 8 9 11 11 11 11 9 9 8 8 10 10 10 9 9 13 15 13 12 12 11 11 11 9 10 11 13 14 13 13 13 13 12
2 3 4 2 2 3 1 7 8 9 5 5 1 2 4 8 8 10 10 10 9 10 10 9 11 10 6 7 8 8 7 11 14 14 11 10 9 9 9 7 9 12 12 12 13 13 12 12 12
1 3 3 4 5 3 6 7 1 7 5 2 2 3 4 9 13 13 11 10 9 9 10 10 10 10 10 9 5 6 7 6 11 11 10 8 9 9 8 5 6 10 11 10 11 12 11 11 11
1 5 7 4 6 3 6 7 3 1 4 4 5 2 4 13 15 13 11 11 10 9 11 11 11 10 10 9 8 7 7 7 11 11 10 9 7 8 9 6 6 8 9 9 10 12 11 10 9
6 6 7 1 2 2 6 5 6 6 6 7 6 5 5 13 15 17 15 14 15 13 12 11 12 11 10 8 10 10 9 8 8 8 10 6 6 6 5 7 7 7 8 8 9 10 9 7 6
4 11 5 3 0 1 2 3 1 4 7 7 8 9 11 14 15 15 16 16 16 15 12 13 12 12 12 9 8 6 6 6 6 9 9 7 6 6 5 5 6 7 6 6 7 7 5 4 3
7 6 3 2 2 3 3 3 4 8 6 3 1 2 12 15 17 19 18 17 15 17 17 16 15 13 13 8 8 8 7 7 7 8 9 7 6 7 6 5 6 6 5 6 5 4 4 5 4
9 6 4 3 3 2 1 6 8 15 14 7 4 5 11 14 16 14 15 15 16 17 17 17 16 15 13 13 9 9 9 8 9 9 10 8 7 7 7 6 6 6 6 6 5 5 5 5 5
3 8 6 4 6 6 7 13 3 16 11 11 9 11 11 13 14 13 16 16 17 17 17 16 18 17 15 13 13 10 9 10 9 9 9 11 8 7 7 7 7 6 6 5 5 5 5 5 5
1 6 7 9 7 7 6 14 16 23 14 15 16 13 11 13 12 18 17 17 17 16 16 18 18 18 17 17 14 11 10 10 10 9 12 12 10 10 9 7 7 7 6 6 5 5 5 5 5
4 5 8 5 9 7 13 20 18 16 13 18 17 15 14 15 17 17 15 15 17 16 19 17 14 17 18 16 13 11 11 10 10 10 10 13 12 11 10 8 8 7 6 6 6 6 6 6 5
6 8 12 7 2 3 14 11 8 6 10 16 15 15 13 13 15 17 15 16 17 18 18 19 18 19 20 18 13 13 14 12 11 10 10 14 14 13 11 9 8 9 7 7 7 7 7 6 6
11 10 7 10 2 4 12 17 15 18 13 13 12 11 12 12 16 15 16 17 17 17 18 18 17 20 19 14 12 12 12 12 12 12 12 16 13 16 13 10 10 9 8 8 7 9 7 6 6
4 7 10 3 4 9 17 19 16 16 18 19 20 19 18 19 19 17 15 17 18 19 19 20 20 21 15 14 14 13 14 13 12 13 17 17 15 17 16 11 11 11 11 11 10 9 10 8 6
11 8 10 9 10 9 18 26 23 22 25 22 22 22 22 23 24 23 21 18 19 20 21 21 23 20 18 13 13 13 13 12 13 12 15 18 18 17 16 15 13 14 11 13 12 11 8 8 8
16 16 14 14 11 16 19 24 19 10 14 21 21 25 26 25 23 21 19 19 17 21 22 21 22 22 22 21 13 12 11 11 12 15 14 17 20 19 18 19 15 15 13 12 14 13 14 9 8
15 8 12 11 9 7 2 13 17 15 15 16 20 20 20 19 19 20 21 19 18 19 17 20 21 22 20 23 19 23 17 16 16 14 13 14 20 20 19 18 17 15 12 14 13 12 12 12 10
8 6 7 10 11 13 16 11 6 5 10 15 18 16 17 18 17 18 17 17 17 14 15 18 21 21 21 20 23 18 21 16 12 13 18 18 17 20 20 19 18 17 13 15 15 15 15 11 10
9 7 3 4 5 9 14 12 17 15 12 10 9 13 12 12 12 14 16 16 15 14 14 17 20 22 20 22 24 25 25 23 16 16 15 14 14 14 20 20 18 17 16 16 15 15 17 14 13
11 13 4 5 7 11 1 13 21 7 9 10 12 13 11 10 13 15 16 14 15 16 15 16 20 21 23 24 25 26 26 25 24 21 16 17 14 14 18 21 20 16 18 17 16 15 16 16 14
22 18 7 9 8 6 4 18 11 1 8 14 12 13 11 15 14 15 16 16 15 16 16 17 19 21 22 23 25 24 27 18 18 20 16 15 15 16 19 18 19 20 19 18 16 13 13 14 13
17 20 11 5 1 5 9 16 20 18 17 16 18 11 10 12 14 15 14 15 15 16 17 17 18 21 21 23 22 24 23 25 21 23 20 15 17 15 18 19 21 20 19 18 17 13 15 14 14
12 12 8 9 8 10 14 20 21 8 16 17 18 15 11 12 14 15 17 18 15 14 15 17 20 21 22 23 22 21 24 24 23 20 22 21 19 18 18 19 21 18 16 16 18 15 14 15 11
11 10 9 9 14 7 11 16 13 15 12 11 10 11 15 19 19 20 19 18 15 16 16 18 18 21 21 21 22 23 23 24 23 22 21 21 19 19 19 19 20 17 17 16 16 17 15 15 14
21 21 19 10 11 13 18 27 12 20 21 19 20 17 15 17 20 20 20 20 19 18 16 16 16 17 19 20 22 23 23 23 23 23 22 20 20 20 19 18 18 17 19 17 17 17 14 16 16
Wind_Direction
326 327 300 242 235 261 89 102 346 145 167 101 133 202 293 343 334 20 128 129 151 147 149 153 134 134 128 124 121 117 113 113 107 104 101 102 103 101 98 92 89 94 97 91 94 90 87 85 86
327 326 240 314 296 335 76 93 232 121 79 127 151 186 216 62 67 103 138 161 158 145 153 149 143 137 132 131 131 125 118 114 114 116 110 109 107 106 99 98 97 100 97 97 94 93 88 84 85
331 336 292 30 18 40 49 51 129 101 116 166 174 257 345 60 118 153 102 150 152 150 153 131 148 142 136 135 136 128 122 119 117 115 111 118 112 115 108 108 97 106 101 98 96 94 90 90 89
331 194 144 250 137 120 53 86 149 147 181 214 259 197 159 31 70 168 144 151 154 151 157 138 156 145 141 135 133 136 134 130 126 119 120 114 117 116 118 105 97 101 107 102 98 97 96 98 97
352 256 224 188 153 146 225 320 184 168 157 175 203 94 168 122 120 140 151 159 155 158 158 160 159 149 148 139 132 134 144 138 131 128 125 124 122 126 128 113 117 109 111 106 103 104 101 100 100
289 300 240 229 195 156 243 188 181 185 167 151 208 237 94 123 148 147 157 164 160 158 163 158 155 146 147 141 138 137 142 149 137 133 135 134 132 131 135 133 107 108 106 111 111 113 109 105 102
291 266 276 235 198 213 109 157 190 189 188 204 131 225 102 163 137 152 160 166 159 164 169 171 171 159 142 147 147 145 146 151 141 137 137 133 128 126 126 129 134 121 123 121 123 121 116 114 110
238 257 234 216 207 194 142 181 221 210 205 74 246 222 137 153 146 152 168 160 172 174 180 177 173 174 173 165 152 156 141 142 140 131 122 113 110 106 104 108 124 133 129 127 136 127 122 119 110
220 232 240 223 180 203 152 198 158 122 194 216 192 276 83 142 145 153 165 177 173 190 192 187 184 183 185 182 164 159 137 107 123 122 126 149 151 157 164 95 134 135 127 121 134 132 124 114 108
220 234 225 207 231 274 177 233 158 189 191 220 212 176 140 161 167 170 182 188 185 193 200 197 195 192 192 187 177 182 168 176 172 167 169 167 162 160 158 131 116 119 125 119 125 130 131 183 145
187 241 190 122 216 238 204 249 280 200 214 233 231 204 177 181 192 195 196 197 195 188 195 200 199 197 194 189 187 192 188 182 183 184 177 171 168 165 180 150 155 156 172 160 156 153 180 163 160
206 228 200 151 143 184 187 311 267 242 257 32 283 259 182 194 204 204 206 202 195 194 195 198 197 196 194 193 196 195 195 190 185 190 187 180 180 183 181 180 175 175 189 174 174 172 172 178 176
223 215 201 196 201 248 245 248 274 261 261 267 249 236 210 215 219 217 217 210 200 203 200 199 197 198 196 200 200 201 203 198 195 188 192 194 197 187 183 184 186 188 188 187 184 184 182 187 188
189 240 219 223 235 261 262 262 214 256 250 252 253 245 240 228 224 219 217 213 212 207 204 198 201 200 200 201 201 200 202 199 198 197 195 200 195 201 190 186 191 199 198 195 198 191 193 199 199
180 248 218 220 220 240 225 251 231 257 252 259 260 249 243 238 229 225 222 219 214 216 211 207 202 200 202 205 203 204 204 205 202 202 200 199 199 199 199 194 200 200 199 199 202 197 204 204 203
197 221 246 166 214 231 202 257 248 260 254 246 252 249 244 237 235 237 233 227 221 218 213 208 206 204 204 207 203 203 205 206 207 203 204 205 204 204 199 201 204 202 201 206 212 206 205 218 215
198 235 225 238 231 289 215 265 254 290 255 254 259 261 255 252 240 242 238 229 226 222 217 213 205 207 209 208 204 205 207 209 210 208 207 204 204 203 205 205 207 203 203 208 212 215 216 212 218
223 226 224 238 125 241 255 256 267 278 277 279 278 270 270 263 256 250 238 234 229 227 225 218 211 212 207 206 209 209 211 212 212 210 209 207 204 201 204 207 208 203 207 210 211 223 215 227 224
260 241 245 231 243 301 270 274 271 274 274 266 262 263 263 264 264 258 243 233 227 226 222 222 215 212 200 201 202 204 209 206 211 213 212 208 207 203 202 208 207 202 206 210 209 214 219 216 212
228 232 237 257 272 285 287 282 278 266 260 258 261 262 259 260 258 250 244 232 227 229 223 221 221 215 209 205 204 208 209 217 214 209 210 213 209 205 206 205 207 205 205 209 210 207 214 229 201
227 236 246 261 283 271 290 284 262 247 250 249 248 248 251 248 255 261 257 250 237 231 229 225 221 216 211 212 211 213 217 218 211 212 210 207 208 208 205 207 205 205 206 205 205 206 212 217 206
230 227 246 256 272 268 58 294 279 274 259 242 244 239 249 255 255 259 263 257 246 242 238 231 228 223 216 208 208 209 210 205 213 212 210 204 206 206 205 208 207 205 202 208 205 203 208 217 217
219 179 232 246 250 275 258 268 249 262 259 247 250 248 246 250 255 263 268 266 263 255 243 240 238 228 222 213 213 211 216 223 214 207 209 208 202 205 203 203 204 206 204 210 208 201 205 207 215
155 147 137 193 234 254 224 227 262 245 254 268 251 247 250 251 265 274 274 274 264 254 239 239 240 237 226 222 218 220 216 219 217 211 205 203 203 200 202 202 204 206 205 206 207 207 207 207 210
186 168 174 207 214 247 191 218 250 303 288 247 257 274 276 265 274 276 279 271 267 263 252 239 241 240 231 223 221 220 224 223 219 216 211 202 200 198 204 198 202 203 205 205 204 204 207 206 210
198 187 194 213 217 270 198 230 251 251 230 253 278 285 287 281 277 274 276 283 282 272 265 251 244 246 242 232 226 224 225 224 223 218 214 215 206 205 199 204 204 204 204 204 204 202 206 208 210
191 218 211 313 122 278 237 255 270 251 246 253 269 290 288 283 291 292 295 295 292 286 277 268 260 254 247 242 234 227 224 225 219 221 219 216 213 206 202 196 205 207 205 203 201 205 205 206 208
193 166 188 215 229 236 248 256 254 281 282 283 285 301 299 304 308 306 301 290 279 272 276 277 269 256 248 242 235 231 226 222 223 219 217 214 215 206 201 197 200 204 201 202 204 205 206 205 208
188 187 221 213 228 243 268 258 255 271 275 287 301 284 290 296 300 299 295 291 286 277 278 278 276 269 260 249 239 232 227 222 220 220 215 213 211 209 202 199 196 193 194 197 201 207 203 205 207
219 210 200 213 212 232 250 263 281 287 290 293 288 293 302 299 284 283 282 281 280 273 269 272 273 268 263 254 246 235 228 222 218 218 215 209 209 209 205 200 195 190 197 191 196 200 197 201 206